DW9852 Weather Reports


time (UTC)temp
C
wind
direction
speed
KPH
gust
KPH
rain 1hr
cm
rain 24hr
cm
rain mn
cm
humidity
%
barometer
mb
20260506190540 28 94 1.6 8.0 0.00 0.00 0.00 72 1011.9
20260506190053 28 0 1.6 6.4 0.00 0.00 0.00 76 1012.0
20260506185540 28 0 0.0 6.4 0.00 0.00 0.00 77 1011.9
20260506185039 28 0 0.0 8.0 0.00 0.00 0.00 77 1012.0
20260506184556 28 18 1.6 9.7 0.00 0.00 0.00 78 1012.1
20260506184039 27 0 0.0 9.7 0.00 0.00 0.00 78 1012.2
20260506183538 27 76 0.0 3.2 0.00 0.00 0.00 80 1012.2
20260506183049 27 0 0.0 1.6 0.00 0.00 0.00 80 1012.3
20260506182541 27 18 0.0 3.2 0.00 0.00 0.00 81 1012.5
20260506182042 26 0 0.0 3.2 0.00 0.00 0.00 81 1012.7
20260506181600 26 0 0.0 3.2 0.00 0.00 0.00 81 1012.7
20260506181040 27 0 0.0 3.2 0.00 0.00 0.00 81 1012.7
20260506180540 27 29 0.0 3.2 0.00 0.00 0.00 80 1012.8
20260506180046 27 0 0.0 3.2 0.00 0.00 0.00 80 1012.7
20260506175539 27 0 0.0 3.2 0.00 0.00 0.00 79 1012.8
20260506175043 27 0 0.0 6.4 0.00 0.00 0.00 78 1012.8
20260506174604 27 0 0.0 6.4 0.00 0.00 0.00 79 1012.7
20260506174040 27 75 0.0 6.4 0.00 0.00 0.00 80 1012.8
20260506173539 27 78 0.0 6.4 0.00 0.00 0.00 80 1012.8
20260506173056 27 0 1.6 6.4 0.00 0.00 0.00 82 1012.8
20260506172539 27 0 0.0 6.4 0.00 0.00 0.00 81 1012.8
20260506172040 27 0 0.0 6.4 0.00 0.00 0.00 81 1012.8
20260506171547 26 14 0.0 8.0 0.00 0.00 0.00 82 1012.9
20260506171040 26 27 1.6 8.0 0.00 0.00 0.00 81 1012.9
20260506170539 26 0 0.0 1.6 0.00 0.00 0.00 83 1012.9
20260506170050 26 0 0.0 3.2 0.00 0.00 0.00 83 1012.9
20260506165540 26 0 0.0 6.4 0.00 0.00 0.00 84 1013.0
20260506165040 26 32 1.6 6.4 0.00 0.00 0.00 84 1013.0
20260506164547 26 0 0.0 4.8 0.00 0.00 0.00 85 1013.0
20260506164038 26 41 0.0 3.2 0.00 0.00 0.00 85 1013.0
20260506163538 26 8 0.0 4.8 0.00 0.00 0.00 85 1012.8
20260506163103 26 0 0.0 4.8 0.00 0.00 0.00 85 1012.8
20260506162539 26 0 1.6 4.8 0.00 0.00 0.00 85 1012.9
20260506162040 26 47 0.0 4.8 0.00 0.00 0.00 86 1012.9
20260506161549 25 0 0.0 4.8 0.00 0.00 0.00 87 1012.8
20260506161044 25 0 1.6 4.8 0.00 0.00 0.00 87 1012.7
20260506160539 25 0 0.0 3.2 0.00 0.00 0.00 87 1012.7
20260506160051 25 43 0.0 4.8 0.00 0.00 0.00 87 1012.8
20260506155540 25 0 0.0 4.8 0.00 0.00 0.00 87 1012.6
20260506155040 25 55 0.0 4.8 0.00 0.00 0.00 87 1012.6
20260506154553 25 0 0.0 0.0 0.00 0.00 0.00 88 1012.5
20260506154043 25 0 0.0 0.0 0.00 0.00 0.00 88 1012.5
20260506153541 -17 0.0 0.0 0.00 0.00 0.00 1012.5
20260506153044 -17 0.0 0.0 0.00 0.00 0.00 1012.4
20260506152538 -17 0.0 0.0 0.00 0.00 0.00 1012.3
20260506152040 -17 0.0 0.0 0.00 0.00 0.00 1012.1
20260506151551 -17 0.0 0.0 0.00 0.00 0.00 1012.1
20260506151038 -17 0.0 0.0 0.00 0.00 0.00 1012.1
20260506150537 -17 0.0 0.0 0.00 0.00 0.00 1012.1
20260506150050 -17 0.0 0.0 0.00 0.00 0.00 1012.1
20260506145541 -17 0.0 0.0 0.00 0.00 0.00 1012.1
20260506145037 -17 0.0 0.0 0.00 0.00 0.00 1012.0
20260506144548 -17 0.0 0.0 0.00 0.00 0.00 1012.0
20260506144040 -17 0.0 0.0 0.00 0.00 0.00 1011.9
20260506143537 -17 0.0 0.0 0.00 0.00 0.00 1011.8
20260506143049 -17 0.0 0.0 0.00 0.00 0.00 1011.7
20260506142538 -17 0.0 0.0 0.00 0.00 0.00 1011.6
20260506142037 -17 0.0 0.0 0.00 0.00 0.00 1011.5
20260506141550 -17 0.0 0.0 0.00 0.00 0.00 1011.5
20260506141039 -17 0.0 0.0 0.00 0.00 0.00 1011.5
20260506140544 -17 0.0 0.0 0.00 0.00 0.00 1011.4
20260506140050 -17 0.0 0.0 0.00 0.00 0.00 1011.3
20260506135539 -17 0.0 0.0 0.00 0.00 0.00 1011.2
20260506135039 -17 0.0 0.0 0.00 0.00 0.00 1011.1
20260506134554 -17 0.0 0.0 0.00 0.00 0.00 1010.9
20260506134038 -17 0.0 0.0 0.00 0.00 0.00 1010.8
20260506133538 -17 0.0 0.0 0.00 0.00 0.00 1010.8
20260506133050 -17 0.0 0.0 0.00 0.00 0.00 1010.8
20260506132541 -17 0.0 0.0 0.00 0.00 0.00 1010.8
20260506132038 -17 0.0 0.0 0.00 0.00 0.00 1010.8
20260506131551 -17 0.0 0.0 0.00 0.00 0.00 1010.6
20260506131039 -17 0.0 0.0 0.00 0.00 0.00 1010.5
20260506130538 -17 0.0 0.0 0.00 0.00 0.00 1010.4
20260506130043 -17 0.0 0.0 0.00 0.00 0.00 1010.3
20260506125540 -17 0.0 0.0 0.00 0.00 0.00 1010.4
20260506125038 -17 0.0 0.0 0.00 0.00 0.00 1010.4
20260506124549 -17 0.0 0.0 0.00 0.00 0.00 1010.5
20260506124038 -17 0.0 0.0 0.00 0.00 0.00 1010.6
20260506123538 -17 0.0 0.0 0.00 0.00 0.00 1010.6
20260506123052 -17 0.0 0.0 0.00 0.00 0.00 1010.5
20260506122539 -17 0.0 0.0 0.00 0.00 0.00 1010.7
20260506122038 -17 0.0 0.0 0.00 0.00 0.00 1010.6
20260506121557 -17 0.0 0.0 0.00 0.00 0.00 1010.5
20260506121038 -17 0.0 0.0 0.00 0.00 0.00 1010.5
20260506120538 -17 0.0 0.0 0.00 0.00 0.00 1010.5
20260506120056 -17 0.0 0.0 0.00 0.00 0.00 1010.4
20260506115542 -17 0.0 0.0 0.00 0.00 0.00 1010.4
20260506115039 -17 0.0 0.0 0.00 0.00 0.00 1010.5
20260506114542 -17 0.0 0.0 0.00 0.00 0.00 1010.4
20260506114040 -17 0.0 0.0 0.00 0.00 0.00 1010.3
20260506113539 -17 0.0 0.0 0.00 0.00 0.00 1010.2
20260506113050 -17 0.0 0.0 0.00 0.00 0.00 1010.2
20260506112541 -17 0.0 0.0 0.00 0.00 0.00 1010.4
20260506112039 -17 0.0 0.0 0.00 0.00 0.00 1010.3
20260506111548 -17 0.0 0.0 0.00 0.00 0.00 1010.2
20260506111040 -17 0.0 0.0 0.00 0.00 0.00 1010.2
20260506110540 -17 0.0 0.0 0.00 0.00 0.00 1010.4
20260506105540 -17 0.0 0.0 0.00 0.00 0.00 1010.3
20260506105039 -17 0.0 0.0 0.00 0.00 0.00 1010.2
20260506104550 -17 0.0 0.0 0.00 0.00 0.00 1010.1
20260506104039 -17 0.0 0.0 0.00 0.00 0.00 1010.1
20260506103540 -17 0.0 0.0 0.00 0.00 0.00 1010.0
20260506103056 -17 0.0 0.0 0.00 0.00 0.00 1010.1
20260506102539 -17 0.0 0.0 0.00 0.00 0.00 1010.1
20260506102041 -17 0.0 0.0 0.00 0.00 0.00 1009.9
20260506101554 -17 0.0 0.0 0.00 0.00 0.00 1010.1
20260506101039 -17 0.0 0.0 0.00 0.00 0.00 1010.0
20260506100539 -17 0.0 0.0 0.00 0.00 0.00 1009.9
20260506100050 -17 0.0 0.0 0.00 0.00 0.00 1010.1
20260506095539 -17 0.0 0.0 0.00 0.00 0.00 1010.1
20260506095040 -17 0.0 0.0 0.00 0.00 0.00 1010.0
20260506094548 -17 0.0 0.0 0.00 0.00 0.00 1010.0
20260506094038 -17 0.0 0.0 0.00 0.00 0.00 1010.1
20260506093542 -17 0.0 0.0 0.00 0.00 0.00 1009.9
20260506093058 -17 0.0 0.0 0.00 0.00 0.00 1010.0
20260506092540 -17 0.0 0.0 0.00 0.00 0.00 1010.1
20260506092039 -17 0.0 0.0 0.00 0.00 0.00 91 1010.0
20260506091549 -17 0.0 0.0 0.00 0.00 0.00 91 1010.0
20260506091039 23 203 1.6 9.7 0.00 0.00 0.00 91 1010.1
20260506090540 23 0 1.6 11.3 0.00 0.00 0.00 90 1010.0
20260506090100 23 0 3.2 11.3 0.00 0.00 0.00 91 1010.0
20260506085539 23 0 0.0 11.3 0.00 0.00 0.00 91 1010.0
20260506085040 23 0 4.8 11.3 0.00 0.00 0.00 91 1010.3
20260506084557 23 208 3.2 9.7 0.00 0.00 0.00 90 1010.2
20260506084039 23 195 0.0 9.7 0.00 0.00 0.00 90 1010.2
20260506083540 23 226 1.6 9.7 0.00 0.00 0.00 91 1010.3
20260506083049 23 203 3.2 8.0 0.00 0.00 0.00 90 1010.4
20260506082540 23 0 0.0 3.2 0.00 0.00 0.00 90 1010.4
20260506082040 24 0 0.0 8.0 0.00 0.00 0.00 90 1010.3
20260506081603 23 0 3.2 8.0 0.00 0.00 0.00 90 1010.4
20260506081043 23 233 3.2 12.9 0.00 0.00 0.00 90 1010.3
20260506080540 23 0 1.6 12.9 0.00 0.00 0.00 90 1010.5
20260506073047 24 174 0.0 9.7 0.00 0.00 0.00 90 1010.4
20260506072539 24 192 0.0 9.7 0.00 0.00 0.00 90 1010.6
20260506072041 24 117 3.2 8.0 0.00 0.00 0.00 90 1010.4
20260506071544 24 198 1.6 12.9 0.00 0.00 0.00 89 1010.6
20260506071044 24 216 1.6 12.9 0.00 0.00 0.00 90 1010.7
20260506070539 24 158 4.8 12.9 0.00 0.00 0.00 90 1010.7
20260506062039 24 215 3.2 12.9 0.00 0.00 0.00 90 1010.6
20260506061550 24 49 4.8 12.9 0.00 0.00 0.00 90 1010.6
20260506061039 24 52 1.6 12.9 0.00 0.00 0.00 90 1010.5
20260506060539 24 31 1.6 16.1 0.00 0.00 0.00 90 1010.6
20260506051037 24 0 1.6 9.7 0.00 0.00 0.00 90 1010.7
20260506050539 24 214 1.6 9.7 0.00 0.00 0.00 89 1010.5
20260506050112 25 165 3.2 9.7 0.00 0.00 0.00 89 1010.3
20260506045039 24 0 1.6 9.7 0.00 0.00 0.00 89 1010.4
20260506044551 25 186 1.6 11.3 0.00 0.00 0.00 89 1010.3
20260506044104 25 215 3.2 12.9 0.00 0.00 0.00 89 1010.4
20260506043539 25 68 4.8 12.9 0.00 0.00 0.00 89 1010.4
20260506043050 25 234 3.2 12.9 0.00 0.00 0.00 89 1010.4
20260506042540 25 212 6.4 12.9 0.00 0.00 0.00 88 1010.4
20260506042042 25 198 4.8 14.5 0.00 0.00 0.00 88 1010.2
20260506041601 25 195 4.8 14.5 0.00 0.00 0.00 88 1010.3
20260506041041 25 86 4.8 12.9 0.00 0.00 0.00 88 1010.2
20260506040539 25 102 1.6 11.3 0.00 0.00 0.00 87 1010.0
20260506040049 25 193 3.2 14.5 0.00 0.00 0.00 87 1010.0
20260506035541 25 89 3.2 14.5 0.00 0.00 0.00 87 1010.1
20260506035039 25 196 3.2 16.1 0.00 0.00 0.00 87 1009.9
20260506034553 25 67 6.4 16.1 0.00 0.00 0.00 87 1010.0
20260506034039 25 203 6.4 14.5 0.00 0.00 0.00 87 1009.9
20260506033539 25 200 3.2 11.3 0.00 0.00 0.00 86 1009.7
20260506033047 26 138 4.8 11.3 0.00 0.00 0.00 86 1009.8
20260506032543 26 63 4.8 14.5 0.00 0.00 0.00 86 1009.7
20260506032039 26 183 4.8 14.5 0.00 0.00 0.00 85 1009.7
20260506031549 26 94 4.8 16.1 0.00 0.00 0.00 85 1009.8
20260506031040 26 178 3.2 16.1 0.00 0.00 0.00 85 1009.7
20260506030545 26 120 3.2 16.1 0.00 0.00 0.00 84 1009.5
20260506030050 26 157 1.6 9.7 0.00 0.00 0.00 84 1009.6
20260506025539 26 45 1.6 12.9 0.00 0.00 0.00 84 1009.5
20260506025039 26 176 3.2 14.5 0.00 0.00 0.00 84 1009.3
20260506024606 26 106 3.2 14.5 0.00 0.00 0.00 84 1009.3
20260506024040 26 34 4.8 17.7 0.00 0.00 0.00 83 1009.1
20260506023540 27 58 3.2 17.7 0.00 0.00 0.00 83 1009.0
20260506023107 27 181 3.2 11.3 0.00 0.00 0.00 82 1009.0
20260506022539 27 0 1.6 11.3 0.00 0.00 0.00 82 1009.0
20260506022041 27 136 1.6 9.7 0.00 0.00 0.00 81 1008.9
20260506021552 27 0 1.6 16.1 0.00 0.00 0.00 81 1008.9
20260506021038 27 176 1.6 16.1 0.00 0.00 0.00 80 1008.9
20260506020539 27 0 1.6 11.3 0.00 0.00 0.00 80 1008.8
20260506020056 27 40 1.6 11.3 0.00 0.00 0.00 79 1008.5
20260506015540 27 77 1.6 17.7 0.00 0.00 0.00 79 1008.5
20260506015040 28 0 3.2 19.3 0.00 0.00 0.00 78 1008.5
20260506014555 28 184 3.2 19.3 0.00 0.00 0.00 77 1008.3
20260506014041 28 50 4.8 12.9 0.00 0.00 0.00 77 1008.2
20260506013538 28 37 4.8 12.9 0.00 0.00 0.00 76 1008.2
20260506013054 28 32 3.2 12.9 0.00 0.00 0.00 75 1008.1
20260506012541 28 41 1.6 9.7 0.00 0.00 0.00 75 1008.0
20260506012041 28 62 1.6 9.7 0.00 0.00 0.00 75 1007.9
20260506011548 28 37 1.6 14.5 0.00 0.00 0.00 75 1007.9
20260506011039 28 42 4.8 14.5 0.00 0.00 0.00 75 1007.8
20260506010540 28 30 3.2 11.3 0.00 0.00 0.00 74 1007.7
20260506010048 28 0 3.2 11.3 0.00 0.00 0.00 74 1007.7
20260506005540 29 133 1.6 9.7 0.00 0.00 0.00 74 1007.7
20260506005039 29 73 3.2 9.7 0.00 0.00 0.00 73 1007.6
20260506004557 29 181 0.0 8.0 0.00 0.00 0.00 72 1007.4
20260506004039 29 0 1.6 9.7 0.00 0.00 0.00 72 1007.5
20260506003538 29 0 1.6 9.7 0.00 0.00 0.00 72 1007.5
20260506003050 29 42 3.2 9.7 0.00 0.00 0.00 71 1007.6
20260506002539 30 136 3.2 8.0 0.00 0.00 0.00 71 1007.6
20260506002037 30 61 1.6 8.0 0.00 0.00 0.00 70 1007.5
20260506001554 30 0 0.0 9.7 0.00 0.00 0.00 70 1007.5
20260506001038 30 0 0.0 9.7 0.00 0.00 0.00 69 1007.5
20260506000541 30 200 1.6 9.7 0.00 0.00 0.00 68 1007.5
20260506000057 30 62 3.2 9.7 0.00 0.00 0.00 69 1007.5
20260505235539 30 198 0.0 9.7 0.00 0.00 0.00 69 1007.5
20260505235040 30 0 3.2 9.7 0.00 0.00 0.00 68 1007.4
20260505234547 30 0 1.6 8.0 0.00 0.00 0.00 69 1007.4
20260505234039 30 124 0.0 6.4 0.00 0.00 0.00 68 1007.5
20260505233541 30 0 1.6 6.4 0.00 0.00 0.00 68 1007.4
20260505233054 30 198 0.0 4.8 0.00 0.00 0.00 68 1007.4
20260505232539 30 118 0.0 8.0 0.00 0.00 0.00 68 1007.3
20260505232039 30 213 0.0 8.0 0.00 0.00 0.00 68 1007.5
20260505231551 30 185 4.8 8.0 0.00 0.00 0.00 67 1007.4
20260505231037 31 0 1.6 4.8 0.00 0.00 0.00 67 1007.4
20260505230537 31 233 0.0 4.8 0.00 0.00 0.00 65 1007.4
20260505230112 31 252 0.0 9.7 0.00 0.00 0.00 66 1007.3
20260505225538 31 0 1.6 11.3 0.00 0.00 0.00 66 1007.4
20260505225039 31 174 3.2 11.3 0.00 0.00 0.00 66 1007.3
20260505224549 31 261 0.0 11.3 0.00 0.00 0.00 66 1007.3
20260505224039 31 203 3.2 11.3 0.00 0.00 0.00 67 1007.3
20260505223539 31 147 4.8 11.3 0.00 0.00 0.00 66 1007.5
20260505223051 30 0 3.2 9.7 0.00 0.00 0.00 68 1007.3
20260505222540 30 181 1.6 11.3 0.00 0.00 0.00 67 1007.4
20260505222043 30 0 3.2 11.3 0.00 0.00 0.00 68 1007.5
20260505221555 30 191 3.2 11.3 0.00 0.00 0.00 67 1007.5
20260505221038 30 127 0.0 11.3 0.00 0.00 0.00 69 1007.6
20260505220539 30 167 4.8 11.3 0.00 0.00 0.00 68 1007.7
20260505220054 30 110 0.0 12.9 0.00 0.00 0.00 66 1007.8
20260505215539 30 52 3.2 12.9 0.00 0.00 0.00 67 1007.8
20260505215039 31 59 1.6 9.7 0.00 0.00 0.00 66 1007.8
20260505214545 31 0 1.6 12.9 0.00 0.00 0.00 64 1007.9
20260505214038 31 0 1.6 12.9 0.00 0.00 0.00 65 1007.8
20260505213539 31 253 4.8 12.9 0.00 0.00 0.00 65 1008.1
20260505213044 31 0 3.2 9.7 0.00 0.00 0.00 67 1008.1
20260505212540 31 91 1.6 9.7 0.00 0.00 0.00 66 1008.1
20260505212039 30 231 4.8 9.7 0.00 0.00 0.00 66 1008.2
20260505211559 30 233 3.2 9.7 0.00 0.00 0.00 66 1008.3
20260505211040 30 234 0.0 14.5 0.00 0.00 0.00 68 1008.2
20260505210538 30 238 0.0 14.5 0.00 0.00 0.00 67 1008.5
20260505210056 30 208 3.2 14.5 0.00 0.00 0.00 65 1008.5
20260505205540 31 218 1.6 11.3 0.00 0.00 0.00 66 1008.6
20260505205039 30 0 1.6 11.3 0.00 0.00 0.00 67 1008.4
20260505204549 30 212 1.6 11.3 0.00 0.00 0.00 67 1008.5
20260505204039 30 0 1.6 9.7 0.00 0.00 0.00 68 1008.7
20260505203539 30 0 0.0 8.0 0.00 0.00 0.00 68 1008.7
20260505203048 30 0 1.6 8.0 0.00 0.00 0.00 68 1009.0
20260505202537 30 193 1.6 8.0 0.00 0.00 0.00 69 1009.2
20260505202039 30 270 0.0 6.4 0.00 0.00 0.00 70 1009.2
20260505201548 29 269 1.6 8.0 0.00 0.00 0.00 69 1009.2
20260505201042 29 0 0.0 8.0 0.00 0.00 0.00 69 1009.4
20260505200539 29 198 1.6 6.4 0.00 0.00 0.00 69 1009.3
20260505200043 29 0 0.0 6.4 0.00 0.00 0.00 72 1009.4
20260505195544 28 224 0.0 4.8 0.00 0.00 0.00 71 1009.6
20260505195042 29 266 0.0 11.3 0.00 0.00 0.00 70 1009.6
20260505194549 29 0 0.0 11.3 0.00 0.00 0.00 71 1009.6
20260505194040 29 226 1.6 9.7 0.00 0.00 0.00 71 1009.6
20260505193539 28 101 0.0 9.7 0.00 0.00 0.00 73 1009.6
20260505193100 28 0 1.6 9.7 0.00 0.00 0.00 73 1009.8
20260505192541 28 22 0.0 8.0 0.00 0.00 0.00 74 1009.9
20260505192039 28 224 0.0 8.0 0.00 0.00 0.00 74 1010.0
20260505191642 27 200 1.6 8.0 0.00 0.00 0.00 76 1009.9
20260505191042 27 0 1.6 12.9 0.00 0.00 0.00 76 1010.0